Doha, Qatar

6:35 AM +03 on April 24, 2018 (GMT +0300)
Doha International

Weather History for OTBD - October, 2012

Change the Weather History Date:

Monday, October 22, 2012

  Actual Average Record
Temperature  
Mean Temperature 87 °F -  
Max Temperature 93 °F 88 °F 100 °F (2006)
Min Temperature 81 °F 69 °F 73 °F (1998)
Cooling Degree Days 22    
Growing Degree Days 37 (Base 50)    
Moisture  
Dew Point 73 °F    
Average Humidity 61    
Maximum Humidity 74    
Minimum Humidity 47    
Precipitation  
Precipitation 0.00 in 0.00 in - ()
Sea Level Pressure  
Sea Level Pressure 29.98 in    
Wind  
Wind Speed 5 mph ()    
Max Wind Speed 9 mph    
Max Gust Speed 18 mph    
Visibility 5.6 miles    
Events      
Averages and records for this station are not official NWS values.
T = Trace of Precipitation, MM = Missing Value Source: Averaged Metar Reports

Daily Weather History Graph

Daily Weather History Graph

Search for Another Location

Airport or City:

Astronomy

Oct. 22, 2012 Rise Set
Actual Time 5:35 AM +03 5:00 PM +03
Civil Twilight 5:12 AM +03 5:23 PM +03
Nautical Twilight 4:45 AM +03 5:50 PM +03
Astronomical Twilight 4:18 AM +03 6:16 PM +03
Moon 12:12 PM +03 (10/22) 11:40 PM +03 (10/22)
Length of Visible Light 12h 10m
Length of Day
11h 24m
First Quarter, 53% of the Moon is Illuminated
Oct 22
First Quarter
Oct 29
Full
Nov 7
Last Quarter
Nov 14
New
Nov 20
First Quarter

Hourly Weather History & Observations

Time (+03) Temp. Heat Index Dew Point Humidity Pressure Visibility Wind Dir Wind Speed Gust Speed Precip Events Conditions
12:00 AM 86.0 °F 93.4 °F 73.4 °F 66% 29.95 in - ENE 4.6 mph - N/A   Clear
12:30 AM 84.2 °F 90.9 °F 73.4 °F 70% 29.98 in - Variable 2.3 mph - N/A   Clear
1:30 AM 84.2 °F 90.9 °F 73.4 °F 70% 29.95 in - NNE 4.6 mph - N/A   Clear
2:00 AM 84.2 °F 90.9 °F 73.4 °F 70% 29.95 in - NNE 4.6 mph - N/A   Clear
2:30 AM 84.2 °F 90.9 °F 73.4 °F 70% 29.95 in - NE 4.6 mph - N/A   Clear
3:00 AM 84 °F - 74 °F 64% 29.97 in 6 mi NNE 4.6 mph - -   Clear
3:00 AM 84.2 °F 90.9 °F 73.4 °F 70% 29.95 in - NNE 4.6 mph - N/A   Clear
3:30 AM 84.2 °F 90.9 °F 73.4 °F 70% 29.95 in 5.0 mi NNE 5.8 mph - N/A   Unknown
4:00 AM 82.4 °F 88.2 °F 73.4 °F 74% 29.98 in - North 4.6 mph - N/A   Clear
4:30 AM 84.2 °F 90.9 °F 73.4 °F 70% 29.98 in - North 6.9 mph 18.4 mph N/A   Clear
5:00 AM 84.2 °F 90.9 °F 73.4 °F 70% 29.98 in - NNE 6.9 mph - N/A   Clear
5:30 AM 84.2 °F 90.9 °F 73.4 °F 70% 29.98 in - NE 4.6 mph - N/A   Clear
6:00 AM 84.2 °F 90.9 °F 73.4 °F 70% 30.01 in - ENE 3.5 mph - N/A   Clear
6:30 AM 86.0 °F 93.4 °F 73.4 °F 66% 30.01 in - Variable 2.3 mph - N/A   Clear
7:00 AM 86.0 °F 95.1 °F 75.2 °F 70% 30.01 in - Variable 2.3 mph - N/A   Clear
7:30 AM 87.8 °F 95.6 °F 73.4 °F 62% 30.04 in - East 4.6 mph - N/A   Clear
8:00 AM 89.6 °F 98.2 °F 73.4 °F 59% 30.04 in - East 6.9 mph - N/A   Clear
8:30 AM 89.6 °F 98.2 °F 73.4 °F 59% 30.04 in 6.2 mi East 6.9 mph - N/A   Partly Cloudy
9:00 AM 91 °F - 74 °F 50% 30.06 in 7 mi East 8.1 mph - -   Scattered Clouds
9:00 AM 91.4 °F 102.5 °F 75.2 °F 59% 30.04 in 6.2 mi East 8.1 mph - N/A   Partly Cloudy
9:30 AM 91.4 °F 100.1 °F 73.4 °F 55% 30.04 in 6.2 mi ESE 9.2 mph - N/A   Scattered Clouds
10:00 AM 91.4 °F 100.1 °F 73.4 °F 55% 30.04 in - ESE 8.1 mph - N/A   Clear
10:30 AM 91.4 °F 100.1 °F 73.4 °F 55% 30.01 in - East 8.1 mph - N/A   Clear
11:00 AM 91.4 °F 100.1 °F 73.4 °F 55% 30.01 in - East 6.9 mph - N/A   Clear
11:30 AM 91.4 °F 98.4 °F 71.6 °F 52% 30.01 in - East 8.1 mph - N/A   Clear
12:00 PM 91.4 °F 98.4 °F 71.6 °F 52% 29.98 in - East 9.2 mph - N/A   Clear
12:30 PM 93.2 °F 100.5 °F 71.6 °F 49% 29.98 in - East 8.1 mph - N/A   Clear
1:00 PM 91.4 °F 98.4 °F 71.6 °F 52% 29.95 in - East 9.2 mph - N/A   Clear
1:30 PM 91.4 °F 98.4 °F 71.6 °F 52% 29.95 in - East 8.1 mph - N/A   Clear
2:00 PM 91.4 °F 100.1 °F 73.4 °F 55% 29.95 in 5.0 mi East 6.9 mph - N/A   Unknown
2:30 PM 91.4 °F 98.4 °F 71.6 °F 52% 29.92 in 5.6 mi North - - N/A   Partly Cloudy
3:00 PM 90 °F - 72 °F 47% 29.94 in 6 mi East 8.1 mph - -   Smoke
3:00 PM 89.6 °F 96.2 °F 71.6 °F 55% 29.92 in 5.6 mi East 8.1 mph - N/A   Unknown
3:30 PM 91.4 °F 98.4 °F 71.6 °F 52% 29.92 in 5.6 mi East 6.9 mph - N/A   Unknown
4:00 PM 89.6 °F 96.2 °F 71.6 °F 55% 29.95 in 5.0 mi East 6.9 mph - N/A   Unknown
4:30 PM 87.8 °F 93.8 °F 71.6 °F 58% 29.95 in 4.3 mi ENE 6.9 mph - N/A   Unknown
5:00 PM 87.8 °F 95.6 °F 73.4 °F 62% 29.95 in 4.3 mi NE 6.9 mph - N/A   Unknown
5:30 PM 87.8 °F 95.6 °F 73.4 °F 62% 29.95 in 5.0 mi ENE 6.9 mph - N/A   Unknown
6:00 PM 87.8 °F 93.8 °F 71.6 °F 58% 29.95 in 5.6 mi NE 5.8 mph - N/A   Unknown
6:30 PM 87.8 °F 93.8 °F 71.6 °F 58% 29.98 in - NE 4.6 mph - N/A   Clear
7:00 PM 87.8 °F 93.8 °F 71.6 °F 58% 29.98 in - NE 4.6 mph - N/A   Clear
7:30 PM 87.8 °F 93.8 °F 71.6 °F 58% 29.98 in - ENE 5.8 mph - N/A   Clear
8:00 PM 87.8 °F 93.8 °F 71.6 °F 58% 29.98 in - ENE 4.6 mph - N/A   Clear
8:30 PM 87.8 °F 93.8 °F 71.6 °F 58% 29.98 in - NE 4.6 mph - N/A   Clear
9:00 PM 87 °F - 72 °F 54% 29.99 in 7 mi NE 4.6 mph - -   Clear
9:00 PM 86.0 °F 93.4 °F 73.4 °F 66% 29.98 in - NE 4.6 mph - N/A   Clear
9:30 PM 86.0 °F 93.4 °F 73.4 °F 66% 29.98 in - ENE 5.8 mph - N/A   Clear
10:00 PM 86.0 °F 93.4 °F 73.4 °F 66% 29.95 in - ENE 5.8 mph - N/A   Clear
10:30 PM 86.0 °F 93.4 °F 73.4 °F 66% 29.95 in - NE 5.8 mph - N/A   Clear
11:00 PM 86.0 °F 91.8 °F 71.6 °F 62% 29.95 in - NE 5.8 mph - N/A   Clear
11:30 PM 86.0 °F 91.8 °F 71.6 °F 62% 29.95 in - NE 5.8 mph - N/A   Clear